Regional Weather Roundup
Issued by NWS

Home | Current Version | Previous Version | Graphics & Text | Print | Product List | Glossary On
Versions: 1 2 3 4 5 6 7 8 9 10 11 12 13 14 15 16 17 18 19 20 21 22 23 24 25 26 27 28 29 30 31 32 33 34 35 36 37 38 39 40 41 42 43 44 45 46 47 48 49 50
000
ASUS43 KLSX 222207
RWRMO

WEATHER SUMMARY FOR MISSOURI
NATIONAL WEATHER SERVICE SPRINGFIELD MO
500 PM CDT FRI AUG 22 2014

NOTE: "FAIR" INDICATES FEW OR NO CLOUDS BELOW 12,000 FEET WITH NO
       SIGNIFICANT WEATHER AND/OR OBSTRUCTIONS TO VISIBILITY.
       CURRENT SKY AND/OR WEATHER CONDITIONS ARE NOT AVAILABLE FOR
       CHILLICOTHE AND FARMINGTON.

MOZ001>031-035>038-043-044-053-054-222300-
...NORTHERN AND WESTERN MISSOURI...

CITY           SKY/WX    TMP DP  RH WIND       PRES   REMARKS
KANSAS CTY INT CLOUDY    91  75  59 SE7       29.91S HX 101
KANSAS C DTWN  PTSUNNY   93  76  57 SE9       29.88F HX 105
LEE`S SUMMIT   PTSUNNY   93  76  57 VRB3      29.91F HX 105
ST JOSEPH      CLOUDY    83  76  79 N8        29.92F HX  91
CHILLICOTHE      N/A     91  78  65 VRB3      29.93R HX 106
KIRKSVILLE     MOSUNNY   87  77  72 S6        29.95R HX  99

$$
MOZ066>068-077>081-088>096-101>105-222300-
...SOUTHWEST MISSOURI...

CITY           SKY/WX    TMP DP  RH WIND       PRES   REMARKS
SPRINGFIELD    MOSUNNY   98  64  32 SW15      29.95F HX 100
JOPLIN         SUNNY     97  67  37 S17       29.93F HX 101

$$
MOZ032>034-039>042-045>050-055>058-069>072-222300-
...CENTRAL MISSOURI...

CITY           SKY/WX    TMP DP  RH WIND       PRES   REMARKS
COLUMBIA       MOSUNNY   93  76  57 S6        29.93F HX 105
JEFFERSON CITY MOSUNNY   94  74  52 S3        29.91F HX 104
ROLLA          PTSUNNY   95  68  41 S7        29.94F HX  99
SEDALIA        MOSUNNY   95  75  52 S7        29.92F HX 107
WHITEMAN AFB   PTSUNNY   90  56  32 SE2       29.90F
OSAGE BEACH    SUNNY     97  72  44 SE6       29.91F HX 105

$$
MOZ051-052-059>065-222300-
...EAST CENTRAL MISSOURI...

CITY           SKY/WX    TMP DP  RH WIND       PRES   REMARKS
ST LOUIS INTL  PTSUNNY   92  75  57 SW10G20   29.94F HX 103
SPIRIT OF STL  PTSUNNY   91  76  61 S3        29.92F HX 103
ST CHARLES     PTSUNNY   91  75  59 SW8       29.91F HX 101

$$
MOZ072>076-082>087-097>100-106>115-222300-
...SOUTH CENTRAL AND SOUTHEAST MISSOURI...

CITY           SKY/WX    TMP DP  RH WIND       PRES   REMARKS
CAPE GIRARDEAU MOSUNNY   91  77  63 S9        29.95F HX 104
FARMINGTON     PTSUNNY   91  73  55 SE8       29.98F HX 100
POPLAR BLUFF   PTSUNNY   92  75  57 S6        29.95F HX 103
WEST PLAINS    PTSUNNY   93  68  43 S9        30.00S HX  97

$$


USA.gov is the U.S. government's official web portal to all federal, state and local government web resources and services.